Time,TemperatureF,DewpointF,PressureIn,WindDirection,WindDirectionDegrees,WindSpeedMPH,WindSpeedGustMPH,Humidity,HourlyPrecipIn,Conditions,Clouds,dailyrainin,SoftwareType,DateUTC
2013-03-11 00:01:00,39.0,31.1,29.29,NW,315,6.0,6.0,73,0.00,RA,,0.00,WeatherDisplay:10.37,2013-03-11 05:01:00,
2013-03-11 00:06:00,39.0,31.1,29.29,NNW,337,5.8,5.8,73,0.00,RA,,0.00,WeatherDisplay:10.37,2013-03-11 05:06:00,
2013-03-11 00:11:00,39.0,30.7,29.29,NNW,337,5.8,5.8,72,0.00,CLR,,0.00,WeatherDisplay:10.37,2013-03-11 05:11:00,
2013-03-11 00:16:00,39.0,30.4,29.29,NW,315,5.8,5.8,71,0.00,CLR,,0.00,WeatherDisplay:10.37,2013-03-11 05:16:00,
2013-03-11 00:22:00,39.0,31.1,29.29,NW,315,6.0,6.0,73,0.00,CLR,,0.00,WeatherDisplay:10.37,2013-03-11 05:22:00,
2013-03-11 00:27:00,39.0,31.1,29.29,NW,315,8.1,8.1,73,0.00,CLR,,0.00,WeatherDisplay:10.37,2013-03-11 05:27:00,
2013-03-11 00:32:00,38.0,30.4,29.29,WNW,292,4.6,4.6,74,0.00,CLR,,0.00,WeatherDisplay:10.37,2013-03-11 05:32:00,
2013-03-11 00:37:00,38.0,30.8,29.29,NW,315,3.5,3.5,75,0.00,CLR,,0.00,WeatherDisplay:10.37,2013-03-11 05:37:00,
2013-03-11 00:42:00,38.0,30.8,29.30,East,90,5.8,5.8,75,0.00,CLR,,0.00,WeatherDisplay:10.37,2013-03-11 05:42:00,
2013-03-11 00:47:00,38.0,31.1,29.30,West,270,4.6,4.6,76,0.00,CLR,,0.00,WeatherDisplay:10.37,2013-03-11 05:47:00,
2013-03-11 00:52:00,38.0,31.1,29.30,NNW,337,5.8,5.8,76,0.00,CLR,,0.00,WeatherDisplay:10.37,2013-03-11 05:52:00,
2013-03-11 00:57:00,38.0,31.1,29.31,North,360,5.8,5.8,76,0.00,CLR,,0.00,WeatherDisplay:10.37,2013-03-11 05:57:00,
2013-03-11 01:02:00,38.0,30.8,29.31,NW,315,5.8,5.8,75,0.00,CLR,,0.00,WeatherDisplay:10.37,2013-03-11 06:02:00,
2013-03-11 01:07:00,38.0,31.1,29.31,North,360,3.5,3.5,76,0.00,CLR,,0.00,WeatherDisplay:10.37,2013-03-11 06:07:00,
2013-03-11 01:12:00,38.0,31.1,29.31,North,360,3.5,3.5,76,0.00,CLR,,0.00,WeatherDisplay:10.37,2013-03-11 06:12:00,
2013-03-11 01:17:00,37.0,30.1,29.31,NW,315,4.6,4.6,76,0.00,CLR,,0.00,WeatherDisplay:10.37,2013-03-11 06:17:00,
2013-03-11 01:22:00,37.0,31.1,29.31,North,360,3.5,3.5,79,0.00,CLR,,0.00,WeatherDisplay:10.37,2013-03-11 06:22:00,
2013-03-11 01:27:00,37.0,31.1,29.31,NNW,337,3.5,3.5,79,0.00,CLR,,0.00,WeatherDisplay:10.37,2013-03-11 06:27:00,
2013-03-11 01:32:00,36.0,30.1,29.31,North,360,5.8,5.8,79,0.00,CLR,,0.00,WeatherDisplay:10.37,2013-03-11 06:32:00,
2013-03-11 01:38:00,36.0,30.1,29.31,North,360,2.3,2.3,79,0.00,CLR,,0.00,WeatherDisplay:10.37,2013-03-11 06:38:00,
2013-03-11 01:43:00,36.0,30.1,29.31,North,360,3.5,3.5,79,0.00,CLR,,0.00,WeatherDisplay:10.37,2013-03-11 06:43:00,
2013-03-11 01:48:00,35.0,29.1,29.31,North,360,1.2,0.0,79,0.00,CLR,,0.00,WeatherDisplay:10.37,2013-03-11 06:48:00,
2013-03-11 01:53:00,35.0,29.1,29.32,North,360,0.0,0.0,79,0.00,CLR,,0.00,WeatherDisplay:10.37,2013-03-11 06:53:00,
2013-03-11 01:58:00,35.0,29.1,29.32,North,360,0.0,0.0,79,0.00,CLR,,0.00,WeatherDisplay:10.37,2013-03-11 06:58:00,
2013-03-11 02:03:00,34.0,28.5,29.32,North,360,0.0,0.0,80,0.00,CLR,,0.00,WeatherDisplay:10.37,2013-03-11 07:03:00,
2013-03-11 02:08:00,34.0,28.8,29.32,North,360,0.0,0.0,81,0.00,CLR,,0.00,WeatherDisplay:10.37,2013-03-11 07:08:00,
2013-03-11 02:13:00,34.0,28.8,29.32,North,360,0.0,0.0,81,0.00,CLR,,0.00,WeatherDisplay:10.37,2013-03-11 07:13:00,
2013-03-11 02:18:00,34.0,29.1,29.32,North,360,0.0,0.0,82,0.00,CLR,,0.00,WeatherDisplay:10.37,2013-03-11 07:18:00,
2013-03-11 02:23:00,34.0,29.1,29.32,North,360,0.0,0.0,82,0.00,CLR,,0.00,WeatherDisplay:10.37,2013-03-11 07:23:00,
2013-03-11 02:28:00,34.0,29.4,29.32,North,360,2.3,2.3,83,0.00,CLR,,0.00,WeatherDisplay:10.37,2013-03-11 07:28:00,
2013-03-11 02:33:00,35.0,29.8,29.33,NW,315,1.2,1.2,81,0.00,CLR,,0.00,WeatherDisplay:10.37,2013-03-11 07:33:00,
2013-03-11 02:38:00,35.0,29.5,29.33,NW,315,1.2,1.2,80,0.00,CLR,,0.00,WeatherDisplay:10.37,2013-03-11 07:38:00,
2013-03-11 02:43:00,35.0,29.5,29.33,NW,315,2.3,2.3,80,0.00,CLR,,0.00,WeatherDisplay:10.37,2013-03-11 07:43:00,
2013-03-11 02:48:00,35.0,29.5,29.33,NW,315,2.3,2.3,80,0.00,CLR,,0.00,WeatherDisplay:10.37,2013-03-11 07:48:00,
2013-03-11 02:53:00,35.0,29.5,29.33,NW,315,1.2,0.0,80,0.00,CLR,,0.00,WeatherDisplay:10.37,2013-03-11 07:53:00,
2013-03-11 02:58:00,35.0,29.5,29.33,NW,315,0.0,0.0,80,0.00,CLR,,0.00,WeatherDisplay:10.37,2013-03-11 07:58:00,
2013-03-11 03:03:00,34.0,28.5,29.33,NW,315,0.0,0.0,80,0.00,CLR,,0.00,WeatherDisplay:10.37,2013-03-11 08:03:00,
2013-03-11 03:08:00,34.0,28.5,29.32,NW,315,0.0,0.0,80,0.00,CLR,,0.00,WeatherDisplay:10.37,2013-03-11 08:08:00,
2013-03-11 03:13:00,33.0,28.1,29.32,NW,315,0.0,0.0,82,0.00,CLR,,0.00,WeatherDisplay:10.37,2013-03-11 08:13:00,
2013-03-11 03:18:00,33.0,28.7,29.32,NW,315,0.0,0.0,84,0.00,CLR,,0.00,WeatherDisplay:10.37,2013-03-11 08:18:00,
2013-03-11 03:23:00,33.0,28.7,29.32,NW,315,1.0,1.0,84,0.00,CLR,,0.00,WeatherDisplay:10.37,2013-03-11 08:23:00,
2013-03-11 03:28:00,33.0,28.7,29.32,NW,315,0.0,0.0,84,0.00,CLR,,0.00,WeatherDisplay:10.37,2013-03-11 08:28:00,
2013-03-11 03:33:00,33.0,28.4,29.32,NW,315,0.0,0.0,83,0.00,CLR,,0.00,WeatherDisplay:10.37,2013-03-11 08:33:00,
2013-03-11 03:38:00,33.0,28.7,29.32,NW,315,0.0,0.0,84,0.00,CLR,,0.00,WeatherDisplay:10.37,2013-03-11 08:38:00,
2013-03-11 03:43:00,32.0,27.7,29.32,NW,315,0.0,0.0,84,0.00,CLR,,0.00,WeatherDisplay:10.37,2013-03-11 08:43:00,
2013-03-11 03:48:00,32.0,28.3,29.32,NW,315,0.0,0.0,86,0.00,CLR,,0.00,WeatherDisplay:10.37,2013-03-11 08:48:00,
2013-03-11 03:53:00,32.0,28.6,29.31,NW,315,0.0,0.5,87,0.00,CLR,,0.00,WeatherDisplay:10.37,2013-03-11 08:53:00,
2013-03-11 03:58:00,32.0,28.3,29.31,NW,315,0.0,0.0,86,0.00,CLR,,0.00,WeatherDisplay:10.37,2013-03-11 08:58:00,
2013-03-11 04:03:00,32.0,28.6,29.31,NW,315,0.0,0.0,87,0.00,CLR,,0.00,WeatherDisplay:10.37,2013-03-11 09:03:00,
2013-03-11 04:08:00,32.0,28.6,29.31,NW,315,0.0,0.0,87,0.00,CLR,,0.00,WeatherDisplay:10.37,2013-03-11 09:08:00,
2013-03-11 04:14:00,32.0,29.1,29.31,NW,315,0.0,0.0,89,0.00,CLR,,0.00,WeatherDisplay:10.37,2013-03-11 09:14:00,
2013-03-11 04:19:00,32.0,29.1,29.31,NW,315,0.0,0.0,89,0.00,CLR,,0.00,WeatherDisplay:10.37,2013-03-11 09:19:00,
2013-03-11 04:24:00,31.0,27.9,29.31,NW,315,0.0,0.0,88,0.00,CLR,,0.00,WeatherDisplay:10.37,2013-03-11 09:24:00,
2013-03-11 04:29:00,31.0,27.9,29.31,NW,315,0.0,0.0,88,0.00,CLR,,0.00,WeatherDisplay:10.37,2013-03-11 09:29:00,
2013-03-11 04:34:00,31.0,28.4,29.30,NW,315,0.0,0.0,90,0.00,CLR,,0.00,WeatherDisplay:10.37,2013-03-11 09:34:00,
2013-03-11 04:39:00,31.0,28.7,29.30,NW,315,0.0,0.0,91,0.00,CLR,,0.00,WeatherDisplay:10.37,2013-03-11 09:39:00,
2013-03-11 04:44:00,31.0,28.7,29.30,NW,315,0.0,0.0,91,0.00,CLR,,0.00,WeatherDisplay:10.37,2013-03-11 09:44:00,
2013-03-11 04:49:00,31.0,28.9,29.30,NW,315,0.0,0.4,92,0.00,CLR,,0.00,WeatherDisplay:10.37,2013-03-11 09:49:00,
2013-03-11 04:54:00,31.0,28.9,29.30,NW,315,1.0,1.0,92,0.00,CLR,,0.00,WeatherDisplay:10.37,2013-03-11 09:54:00,
2013-03-11 04:59:00,32.0,30.2,29.30,NW,315,0.0,0.0,93,0.00,CLR,,0.00,WeatherDisplay:10.37,2013-03-11 09:59:00,
2013-03-11 05:04:00,32.0,29.9,29.30,NW,315,0.0,0.0,92,0.00,CLR,,0.00,WeatherDisplay:10.37,2013-03-11 10:04:00,
2013-03-11 05:09:00,31.0,28.7,29.30,NW,315,0.0,0.0,91,0.00,CLR,,0.00,WeatherDisplay:10.37,2013-03-11 10:09:00,
2013-03-11 05:14:00,31.0,28.7,29.29,NW,315,0.0,0.0,91,0.00,CLR,,0.00,WeatherDisplay:10.37,2013-03-11 10:14:00,
2013-03-11 05:19:00,31.0,29.5,29.29,NW,315,0.0,0.0,94,0.00,CLR,,0.00,WeatherDisplay:10.37,2013-03-11 10:19:00,
2013-03-11 05:24:00,32.0,30.2,29.29,NW,315,1.2,1.2,93,0.00,CLR,,0.00,WeatherDisplay:10.37,2013-03-11 10:24:00,
2013-03-11 05:29:00,32.0,29.7,29.29,NW,315,1.2,1.2,91,0.00,CLR,,0.00,WeatherDisplay:10.37,2013-03-11 10:29:00,
2013-03-11 05:34:00,32.0,29.7,29.29,NW,315,0.0,0.0,91,0.00,CLR,,0.00,WeatherDisplay:10.37,2013-03-11 10:34:00,
2013-03-11 05:39:00,31.0,28.4,29.29,NW,315,0.0,0.0,90,0.00,CLR,,0.00,WeatherDisplay:10.37,2013-03-11 10:39:00,
2013-03-11 05:44:00,31.0,28.7,29.29,NW,315,2.3,2.3,91,0.00,CLR,,0.00,WeatherDisplay:10.37,2013-03-11 10:44:00,
2013-03-11 05:49:00,31.0,28.7,29.29,NW,315,0.0,0.0,91,0.00,CLR,,0.00,WeatherDisplay:10.37,2013-03-11 10:49:00,
2013-03-11 05:54:00,31.0,28.9,29.29,WNW,292,2.3,2.3,92,0.00,CLR,,0.00,WeatherDisplay:10.37,2013-03-11 10:54:00,
2013-03-11 05:59:00,32.0,29.9,29.29,WNW,292,3.5,3.5,92,0.00,CLR,,0.00,WeatherDisplay:10.37,2013-03-11 10:59:00,
2013-03-11 06:04:00,32.0,29.7,29.29,WNW,292,0.0,0.0,91,0.00,CLR,,0.00,WeatherDisplay:10.37,2013-03-11 11:04:00,
2013-03-11 06:09:00,31.0,28.7,29.29,WNW,292,0.0,0.0,91,0.00,CLR,,0.00,WeatherDisplay:10.37,2013-03-11 11:09:00,
2013-03-11 06:14:00,31.0,28.7,29.29,WNW,292,0.0,0.0,91,0.00,CLR,,0.00,WeatherDisplay:10.37,2013-03-11 11:14:00,
2013-03-11 06:19:00,31.0,28.7,29.29,WNW,292,0.0,0.0,91,0.00,CLR,,0.00,WeatherDisplay:10.37,2013-03-11 11:19:00,
2013-03-11 06:24:00,31.0,28.9,29.29,West,270,3.5,3.5,92,0.00,CLR,,0.00,WeatherDisplay:10.37,2013-03-11 11:24:00,
2013-03-11 06:29:00,31.0,28.9,29.30,West,270,3.0,3.0,92,0.00,CLR,,0.00,WeatherDisplay:10.37,2013-03-11 11:29:00,
2013-03-11 06:34:00,31.0,29.2,29.30,West,270,3.5,3.5,93,0.00,CLR,,0.00,WeatherDisplay:10.37,2013-03-11 11:34:00,
2013-03-11 06:39:00,31.0,28.9,29.29,West,270,2.3,2.3,92,0.00,CLR,,0.00,WeatherDisplay:10.37,2013-03-11 11:39:00,
2013-03-11 06:44:00,31.0,29.5,29.30,West,270,3.5,3.5,94,0.00,CLR,,0.00,WeatherDisplay:10.37,2013-03-11 11:44:00,
2013-03-11 06:49:00,31.0,29.5,29.29,West,270,1.2,1.2,94,0.00,CLR,,0.00,WeatherDisplay:10.37,2013-03-11 11:49:00,
2013-03-11 06:54:00,31.0,29.5,29.29,West,270,3.5,3.5,94,0.00,CLR,,0.00,WeatherDisplay:10.37,2013-03-11 11:54:00,
2013-03-11 06:59:00,31.0,29.5,29.29,West,270,3.5,0.0,94,0.00,CLR,,0.00,WeatherDisplay:10.37,2013-03-11 11:59:00,
2013-03-11 07:04:00,31.0,29.5,29.29,West,270,0.0,0.0,94,0.00,CLR,,0.00,WeatherDisplay:10.37,2013-03-11 12:04:00,
2013-03-11 07:09:00,30.0,28.5,29.29,West,270,0.0,0.0,94,0.00,CLR,,0.00,WeatherDisplay:10.37,2013-03-11 12:09:00,
2013-03-11 07:14:00,30.0,28.7,29.29,West,270,3.5,3.5,95,0.00,CLR,,0.00,WeatherDisplay:10.37,2013-03-11 12:14:00,
2013-03-11 07:19:00,31.0,30.0,29.29,West,270,2.3,2.3,96,0.00,CLR,,0.00,WeatherDisplay:10.37,2013-03-11 12:19:00,
2013-03-11 07:24:00,31.0,29.7,29.29,West,270,1.2,1.2,95,0.00,CLR,,0.00,WeatherDisplay:10.37,2013-03-11 12:24:00,
2013-03-11 07:29:00,31.0,30.0,29.29,West,270,3.5,3.5,96,0.00,CLR,,0.00,WeatherDisplay:10.37,2013-03-11 12:29:00,
2013-03-11 07:34:00,31.0,30.0,29.29,West,270,3.5,3.5,96,0.00,CLR,,0.00,WeatherDisplay:10.37,2013-03-11 12:34:00,
2013-03-11 07:39:00,31.0,29.7,29.30,West,270,0.0,0.0,95,0.00,CLR,,0.00,WeatherDisplay:10.37,2013-03-11 12:39:00,
2013-03-11 07:44:00,31.0,30.0,29.30,WSW,247,3.5,3.5,96,0.00,CLR,,0.00,WeatherDisplay:10.37,2013-03-11 12:44:00,
2013-03-11 07:49:00,31.0,30.2,29.30,West,270,3.5,3.7,97,0.00,CLR,,0.00,WeatherDisplay:10.37,2013-03-11 12:49:00,
2013-03-11 07:54:00,31.0,30.2,29.30,WNW,292,5.8,5.8,97,0.00,CLR,,0.00,WeatherDisplay:10.37,2013-03-11 12:54:00,
2013-03-11 07:59:00,32.0,31.2,29.31,WSW,247,3.5,3.5,97,0.00,CLR,,0.00,WeatherDisplay:10.37,2013-03-11 12:59:00,
2013-03-11 08:04:00,33.0,32.2,29.31,West,270,6.9,6.9,97,0.00,CLR,,0.00,WeatherDisplay:10.37,2013-03-11 13:04:00,
2013-03-11 08:09:00,33.0,32.0,29.31,West,270,5.8,5.8,96,0.00,CLR,,0.00,WeatherDisplay:10.37,2013-03-11 13:09:00,
2013-03-11 08:14:00,34.0,32.7,29.31,West,270,6.0,6.0,95,0.00,CLR,,0.00,WeatherDisplay:10.37,2013-03-11 13:14:00,
2013-03-11 08:19:00,34.0,32.2,29.31,NNW,337,7.0,7.0,93,0.00,CLR,,0.00,WeatherDisplay:10.37,2013-03-11 13:19:00,
2013-03-11 08:24:00,35.0,32.4,29.31,WNW,292,8.1,8.1,90,0.00,CLR,,0.00,WeatherDisplay:10.37,2013-03-11 13:24:00,
2013-03-11 08:29:00,35.0,32.1,29.31,NW,315,6.9,6.9,89,0.00,CLR,,0.00,WeatherDisplay:10.37,2013-03-11 13:29:00,
2013-03-11 08:34:00,35.0,31.8,29.32,WNW,292,7.0,7.0,88,0.00,CLR,,0.00,WeatherDisplay:10.37,2013-03-11 13:34:00,
2013-03-11 08:39:00,36.0,31.9,29.32,WNW,292,8.1,8.1,85,0.00,CLR,,0.00,WeatherDisplay:10.37,2013-03-11 13:39:00,
2013-03-11 08:44:00,36.0,31.3,29.32,West,270,8.1,8.1,83,0.00,CLR,,0.00,WeatherDisplay:10.37,2013-03-11 13:44:00,
2013-03-11 08:49:00,37.0,30.8,29.32,NW,315,9.2,9.2,78,0.00,CLR,,0.00,WeatherDisplay:10.37,2013-03-11 13:49:00,
2013-03-11 08:54:00,37.0,29.5,29.32,West,270,13.0,13.0,74,0.00,CLR,,0.00,WeatherDisplay:10.37,2013-03-11 13:54:00,
2013-03-11 08:59:00,38.0,30.8,29.33,NW,315,11.5,11.5,75,0.00,CLR,,0.00,WeatherDisplay:10.37,2013-03-11 13:59:00,
2013-03-11 09:04:00,38.0,30.1,29.33,NNW,337,10.4,10.4,73,0.00,CLR,,0.00,WeatherDisplay:10.37,2013-03-11 14:04:00,
2013-03-11 09:09:00,38.0,29.1,29.33,WNW,292,9.2,9.2,70,0.00,CLR,,0.00,WeatherDisplay:10.37,2013-03-11 14:09:00,
2013-03-11 09:14:00,38.0,28.4,29.33,NNW,337,7.0,8.0,68,0.00,CLR,,0.00,WeatherDisplay:10.37,2013-03-11 14:14:00,
2013-03-11 09:19:00,39.0,29.3,29.34,WSW,247,10.4,10.4,68,0.00,CLR,,0.00,WeatherDisplay:10.37,2013-03-11 14:19:00,
2013-03-11 09:24:00,39.0,29.0,29.34,West,270,10.4,10.4,67,0.00,CLR,,0.00,WeatherDisplay:10.37,2013-03-11 14:24:00,
2013-03-11 09:30:00,39.0,28.2,29.34,NW,315,11.5,11.5,65,0.00,CLR,,0.00,WeatherDisplay:10.37,2013-03-11 14:30:00,
2013-03-11 09:35:00,39.0,27.8,29.34,WNW,292,11.5,11.5,64,0.00,CLR,,0.00,WeatherDisplay:10.37,2013-03-11 14:35:00,
2013-03-11 09:40:00,39.0,27.8,29.35,NNW,337,7.0,7.5,64,0.00,CLR,,0.00,WeatherDisplay:10.37,2013-03-11 14:40:00,
2013-03-11 09:45:00,40.0,28.0,29.35,NNW,337,9.2,9.2,62,0.00,CLR,,0.00,WeatherDisplay:10.37,2013-03-11 14:45:00,
2013-03-11 09:50:00,40.0,27.6,29.34,NW,315,12.7,12.7,61,0.00,CLR,,0.00,WeatherDisplay:10.37,2013-03-11 14:50:00,
2013-03-11 09:55:00,40.0,27.6,29.35,NW,315,9.2,9.2,61,0.00,CLR,,0.00,WeatherDisplay:10.37,2013-03-11 14:55:00,
2013-03-11 10:00:00,41.0,28.2,29.35,WNW,292,10.4,10.4,60,0.00,CLR,,0.00,WeatherDisplay:10.37,2013-03-11 15:00:00,
2013-03-11 10:05:00,41.0,27.8,29.35,West,270,11.5,11.5,59,0.00,CLR,,0.00,WeatherDisplay:10.37,2013-03-11 15:05:00,
2013-03-11 10:10:00,41.0,27.8,29.35,NNW,337,10.4,10.4,59,0.00,CLR,,0.00,WeatherDisplay:10.37,2013-03-11 15:10:00,
2013-03-11 10:15:00,42.0,29.1,29.35,West,270,10.4,10.4,60,0.00,CLR,,0.00,WeatherDisplay:10.37,2013-03-11 15:15:00,
2013-03-11 10:20:00,42.0,28.7,29.35,WNW,292,10.4,10.4,59,0.00,CLR,,0.00,WeatherDisplay:10.37,2013-03-11 15:20:00,
2013-03-11 10:25:00,42.0,28.3,29.35,NW,315,9.2,9.2,58,0.00,CLR,,0.00,WeatherDisplay:10.37,2013-03-11 15:25:00,
2013-03-11 10:30:00,42.0,27.9,29.36,West,270,15.0,15.0,57,0.00,CLR,,0.00,WeatherDisplay:10.37,2013-03-11 15:30:00,
2013-03-11 10:35:00,42.0,27.0,29.36,NW,315,11.5,11.5,55,0.00,CLR,,0.00,WeatherDisplay:10.37,2013-03-11 15:35:00,
2013-03-11 10:40:00,42.0,27.9,29.36,West,270,9.2,9.2,57,0.00,CLR,,0.00,WeatherDisplay:10.37,2013-03-11 15:40:00,
2013-03-11 10:45:00,43.0,28.4,29.36,WNW,292,9.2,9.2,56,0.00,CLR,,0.00,WeatherDisplay:10.37,2013-03-11 15:45:00,
2013-03-11 10:50:00,43.0,27.9,29.36,NW,315,12.7,12.7,55,0.00,CLR,,0.00,WeatherDisplay:10.37,2013-03-11 15:50:00,
2013-03-11 10:56:00,43.0,28.4,29.37,NW,315,11.5,11.5,56,0.00,CLR,,0.00,WeatherDisplay:10.37,2013-03-11 15:56:00,
2013-03-11 11:01:00,43.0,27.0,29.36,NW,315,10.4,10.4,53,0.00,CLR,,0.00,WeatherDisplay:10.37,2013-03-11 16:01:00,
2013-03-11 11:06:00,44.0,28.0,29.37,West,270,8.1,8.9,53,0.00,CLR,,0.00,WeatherDisplay:10.37,2013-03-11 16:06:00,
2013-03-11 11:11:00,43.0,27.0,29.37,WNW,292,9.2,9.2,53,0.00,CLR,,0.00,WeatherDisplay:10.37,2013-03-11 16:11:00,
2013-03-11 11:16:00,44.0,27.5,29.37,WNW,292,12.0,12.0,52,0.00,CLR,,0.00,WeatherDisplay:10.37,2013-03-11 16:16:00,
2013-03-11 11:21:00,44.0,26.0,29.37,West,270,16.1,16.1,49,0.00,CLR,,0.00,WeatherDisplay:10.37,2013-03-11 16:21:00,
2013-03-11 11:26:00,44.0,26.5,29.37,NW,315,12.7,12.7,50,0.00,CLR,,0.00,WeatherDisplay:10.37,2013-03-11 16:26:00,
2013-03-11 11:31:00,44.0,27.0,29.37,NW,315,9.2,9.2,51,0.00,CLR,,0.00,WeatherDisplay:10.37,2013-03-11 16:31:00,
2013-03-11 11:36:00,44.0,26.5,29.37,WNW,292,8.0,8.0,50,0.00,CLR,,0.00,WeatherDisplay:10.37,2013-03-11 16:36:00,
2013-03-11 11:41:00,45.0,26.5,29.37,NW,315,11.5,11.5,48,0.00,CLR,,0.00,WeatherDisplay:10.37,2013-03-11 16:41:00,
2013-03-11 11:46:00,45.0,26.0,29.37,WNW,292,11.5,11.5,47,0.00,CLR,,0.00,WeatherDisplay:10.37,2013-03-11 16:46:00,
2013-03-11 11:51:00,45.0,26.0,29.37,West,270,17.3,17.3,47,0.00,CLR,,0.00,WeatherDisplay:10.37,2013-03-11 16:51:00,
2013-03-11 11:57:00,45.0,25.4,29.37,WSW,247,12.7,12.7,46,0.00,CLR,,0.00,WeatherDisplay:10.37,2013-03-11 16:57:00,
2013-03-11 12:02:00,46.0,26.9,29.37,WNW,292,10.4,10.4,47,0.00,CLR,,0.00,WeatherDisplay:10.37,2013-03-11 17:02:00,
2013-03-11 12:07:00,45.0,23.8,29.37,West,270,11.5,11.5,43,0.00,CLR,,0.00,WeatherDisplay:10.37,2013-03-11 17:07:00,
2013-03-11 12:12:00,46.0,25.8,29.37,West,270,6.0,6.4,45,0.00,CLR,,0.00,WeatherDisplay:10.37,2013-03-11 17:12:00,
2013-03-11 12:17:00,47.0,26.7,29.37,NW,315,8.1,8.1,45,0.00,CLR,,0.00,WeatherDisplay:10.37,2013-03-11 17:17:00,
2013-03-11 12:22:00,47.0,25.1,29.37,NW,315,10.4,10.4,42,0.00,CLR,,0.00,WeatherDisplay:10.37,2013-03-11 17:22:00,
2013-03-11 12:27:00,47.0,26.7,29.37,NW,315,9.0,9.0,45,0.00,CLR,,0.00,WeatherDisplay:10.37,2013-03-11 17:27:00,
2013-03-11 12:32:00,47.0,25.1,29.37,NW,315,10.0,10.0,42,0.00,CLR,,0.00,WeatherDisplay:10.37,2013-03-11 17:32:00,
2013-03-11 12:37:00,48.0,24.8,29.37,WNW,292,12.7,12.7,40,0.00,CLR,,0.00,WeatherDisplay:10.37,2013-03-11 17:37:00,
2013-03-11 12:42:00,48.0,25.4,29.36,NW,315,10.4,10.4,41,0.00,CLR,,0.00,WeatherDisplay:10.37,2013-03-11 17:42:00,
2013-03-11 12:47:00,48.0,24.8,29.36,NW,315,8.1,8.1,40,0.00,CLR,,0.00,WeatherDisplay:10.37,2013-03-11 17:47:00,
2013-03-11 12:52:00,48.0,26.0,29.36,NW,315,6.9,7.3,42,0.00,CLR,,0.00,WeatherDisplay:10.37,2013-03-11 17:52:00,
2013-03-11 12:57:00,49.0,26.9,29.36,WNW,292,10.0,10.0,42,0.00,CLR,,0.00,WeatherDisplay:10.37,2013-03-11 17:57:00,
2013-03-11 13:02:00,48.0,24.8,29.36,West,270,11.0,11.0,40,0.00,CLR,,0.00,WeatherDisplay:10.37,2013-03-11 18:02:00,
2013-03-11 13:07:00,49.0,25.1,29.36,NW,315,9.2,9.2,39,0.00,CLR,,0.00,WeatherDisplay:10.37,2013-03-11 18:07:00,
2013-03-11 13:13:00,48.0,22.9,29.36,WSW,247,6.9,6.9,37,0.00,CLR,,0.00,WeatherDisplay:10.37,2013-03-11 18:13:00,
2013-03-11 13:18:00,49.0,23.8,29.36,NNW,337,11.5,11.5,37,0.00,CLR,,0.00,WeatherDisplay:10.37,2013-03-11 18:18:00,
2013-03-11 13:23:00,49.0,22.5,29.36,NNW,337,11.5,11.5,35,0.00,CLR,,0.00,WeatherDisplay:10.37,2013-03-11 18:23:00,
2013-03-11 13:28:00,50.0,24.7,29.36,West,270,10.4,10.4,37,0.00,CLR,,0.00,WeatherDisplay:10.37,2013-03-11 18:28:00,
2013-03-11 13:33:00,50.0,23.4,29.35,West,270,9.2,9.2,35,0.00,CLR,,0.00,WeatherDisplay:10.37,2013-03-11 18:33:00,
2013-03-11 13:38:00,50.0,22.7,29.35,NNW,337,9.2,9.2,34,0.00,CLR,,0.00,WeatherDisplay:10.37,2013-03-11 18:38:00,
2013-03-11 13:43:00,50.0,22.7,29.35,NNW,337,9.0,9.0,34,0.00,CLR,,0.00,WeatherDisplay:10.37,2013-03-11 18:43:00,
2013-03-11 13:48:00,50.0,22.0,29.35,West,270,16.1,16.1,33,0.00,CLR,,0.00,WeatherDisplay:10.37,2013-03-11 18:48:00,
2013-03-11 13:53:00,51.0,24.3,29.35,West,270,11.0,11.0,35,0.00,CLR,,0.00,WeatherDisplay:10.37,2013-03-11 18:53:00,
2013-03-11 13:58:00,51.0,23.6,29.35,WNW,292,9.0,9.1,34,0.00,CLR,,0.00,WeatherDisplay:10.37,2013-03-11 18:58:00,
2013-03-11 14:03:00,51.0,25.0,29.35,West,270,6.9,8.7,36,0.00,CLR,,0.00,WeatherDisplay:10.37,2013-03-11 19:03:00,
2013-03-11 14:09:00,51.0,26.3,29.35,West,270,9.2,9.2,38,0.00,CLR,,0.00,WeatherDisplay:10.37,2013-03-11 19:09:00,
2013-03-11 14:14:00,52.0,24.5,29.35,NW,315,11.5,11.5,34,0.00,CLR,,0.00,WeatherDisplay:10.37,2013-03-11 19:14:00,
2013-03-11 14:19:00,52.0,24.5,29.35,West,270,12.7,12.7,34,0.00,CLR,,0.00,WeatherDisplay:10.37,2013-03-11 19:19:00,
2013-03-11 14:24:00,52.0,23.8,29.35,West,270,9.2,9.2,33,0.00,CLR,,0.00,WeatherDisplay:10.37,2013-03-11 19:24:00,
2013-03-11 14:29:00,52.0,23.0,29.34,NW,315,7.0,7.0,32,0.00,CLR,,0.00,WeatherDisplay:10.37,2013-03-11 19:29:00,
2013-03-11 14:34:00,52.0,22.3,29.34,WNW,292,6.0,8.0,31,0.00,CLR,,0.00,WeatherDisplay:10.37,2013-03-11 19:34:00,
2013-03-11 14:39:00,52.0,21.5,29.34,West,270,11.5,11.5,30,0.00,CLR,,0.00,WeatherDisplay:10.37,2013-03-11 19:39:00,
2013-03-11 14:44:00,52.0,23.0,29.33,NW,315,7.0,7.0,32,0.00,CLR,,0.00,WeatherDisplay:10.37,2013-03-11 19:44:00,
2013-03-11 14:49:00,52.0,20.7,29.34,NW,315,11.5,11.5,29,0.00,CLR,,0.00,WeatherDisplay:10.37,2013-03-11 19:49:00,
2013-03-11 14:54:00,52.0,22.3,29.33,NW,315,9.2,9.2,31,0.00,CLR,,0.00,WeatherDisplay:10.37,2013-03-11 19:54:00,
2013-03-11 14:59:00,53.0,23.1,29.33,WNW,292,9.2,9.2,31,0.00,CLR,,0.00,WeatherDisplay:10.37,2013-03-11 19:59:00,
2013-03-11 15:04:00,53.0,22.4,29.33,NW,315,9.2,9.2,30,0.00,CLR,,0.00,WeatherDisplay:10.37,2013-03-11 20:04:00,
2013-03-11 15:09:00,53.0,21.6,29.33,West,270,14.0,14.0,29,0.00,CLR,,0.00,WeatherDisplay:10.37,2013-03-11 20:09:00,
2013-03-11 15:14:00,53.0,22.4,29.33,NW,315,8.1,8.1,30,0.00,CLR,,0.00,WeatherDisplay:10.37,2013-03-11 20:14:00,
2013-03-11 15:19:00,53.0,22.4,29.33,West,270,9.2,9.2,30,0.00,CLR,,0.00,WeatherDisplay:10.37,2013-03-11 20:19:00,
2013-03-11 15:24:00,53.0,22.4,29.32,WSW,247,9.2,9.2,30,0.00,CLR,,0.00,WeatherDisplay:10.37,2013-03-11 20:24:00,
2013-03-11 15:29:00,54.0,20.7,29.32,NNW,337,15.0,15.0,27,0.00,CLR,,0.00,WeatherDisplay:10.37,2013-03-11 20:29:00,
2013-03-11 15:34:00,54.0,21.6,29.32,NW,315,11.5,11.5,28,0.00,CLR,,0.00,WeatherDisplay:10.37,2013-03-11 20:34:00,
2013-03-11 15:39:00,54.0,21.6,29.32,NW,315,10.4,10.4,28,0.00,CLR,,0.00,WeatherDisplay:10.37,2013-03-11 20:39:00,
2013-03-11 15:44:00,54.0,20.7,29.31,WNW,292,12.0,12.0,27,0.00,CLR,,0.00,WeatherDisplay:10.37,2013-03-11 20:44:00,
2013-03-11 15:49:00,54.0,19.8,29.31,NW,315,9.2,9.2,26,0.00,CLR,,0.00,WeatherDisplay:10.37,2013-03-11 20:49:00,
2013-03-11 15:54:00,55.0,20.7,29.31,West,270,10.4,10.4,26,0.00,CLR,,0.00,WeatherDisplay:10.37,2013-03-11 20:54:00,
2013-03-11 15:59:00,55.0,19.8,29.31,WNW,292,10.4,10.4,25,0.00,CLR,,0.00,WeatherDisplay:10.37,2013-03-11 20:59:00,
2013-03-11 16:04:00,55.0,20.7,29.31,NNW,337,10.4,10.4,26,0.00,CLR,,0.00,WeatherDisplay:10.37,2013-03-11 21:04:00,
2013-03-11 16:09:00,55.0,20.7,29.31,NW,315,10.4,10.4,26,0.00,CLR,,0.00,WeatherDisplay:10.37,2013-03-11 21:09:00,
2013-03-11 16:14:00,55.0,20.7,29.31,NW,315,16.1,16.1,26,0.00,CLR,,0.00,WeatherDisplay:10.37,2013-03-11 21:14:00,
2013-03-11 16:19:00,55.0,19.8,29.31,NW,315,11.5,11.5,25,0.00,CLR,,0.00,WeatherDisplay:10.37,2013-03-11 21:19:00,
2013-03-11 16:24:00,56.0,21.6,29.31,West,270,7.0,7.0,26,0.00,CLR,,0.00,WeatherDisplay:10.37,2013-03-11 21:24:00,
2013-03-11 16:29:00,56.0,21.6,29.31,NW,315,10.0,10.0,26,0.00,CLR,,0.00,WeatherDisplay:10.37,2013-03-11 21:29:00,
2013-03-11 16:34:00,56.0,20.6,29.31,NW,315,12.0,12.0,25,0.00,CLR,,0.00,WeatherDisplay:10.37,2013-03-11 21:34:00,
2013-03-11 16:39:00,56.0,20.6,29.31,NW,315,11.0,11.0,25,0.00,CLR,,0.00,WeatherDisplay:10.37,2013-03-11 21:39:00,
2013-03-11 16:44:00,56.0,19.7,29.31,NW,315,10.4,10.4,24,0.00,CLR,,0.00,WeatherDisplay:10.37,2013-03-11 21:44:00,
2013-03-11 16:49:00,56.0,20.6,29.30,North,360,11.5,11.5,25,0.00,CLR,,0.00,WeatherDisplay:10.37,2013-03-11 21:49:00,
2013-03-11 16:54:00,56.0,20.6,29.30,WNW,292,7.0,7.0,25,0.00,CLR,,0.00,WeatherDisplay:10.37,2013-03-11 21:54:00,
2013-03-11 16:59:00,56.0,20.6,29.30,WNW,292,11.5,11.5,25,0.00,CLR,,0.00,WeatherDisplay:10.37,2013-03-11 21:59:00,
2013-03-11 17:04:00,56.0,19.7,29.30,NW,315,12.0,12.0,24,0.00,CLR,,0.00,WeatherDisplay:10.37,2013-03-11 22:04:00,
2013-03-11 17:09:00,57.0,20.5,29.30,NNW,337,8.1,8.1,24,0.00,CLR,,0.00,WeatherDisplay:10.37,2013-03-11 22:09:00,
2013-03-11 17:14:00,57.0,21.5,29.30,North,360,8.1,8.1,25,0.00,CLR,,0.00,WeatherDisplay:10.37,2013-03-11 22:14:00,
2013-03-11 17:19:00,57.0,20.5,29.30,North,360,9.2,9.2,24,0.00,CLR,,0.00,WeatherDisplay:10.37,2013-03-11 22:19:00,
2013-03-11 17:24:00,58.0,21.4,29.30,NW,315,10.4,10.4,24,0.00,CLR,,0.00,WeatherDisplay:10.37,2013-03-11 22:24:00,
2013-03-11 17:29:00,57.0,20.5,29.30,WNW,292,9.0,9.0,24,0.00,CLR,,0.00,WeatherDisplay:10.37,2013-03-11 22:29:00,
2013-03-11 17:34:00,57.0,20.5,29.30,NW,315,9.2,9.2,24,0.00,CLR,,0.00,WeatherDisplay:10.37,2013-03-11 22:34:00,
2013-03-11 17:39:00,57.0,21.5,29.30,NW,315,8.1,8.1,25,0.00,CLR,,0.00,WeatherDisplay:10.37,2013-03-11 22:39:00,
2013-03-11 17:44:00,57.0,22.4,29.30,NW,315,10.4,10.4,26,0.00,CLR,,0.00,WeatherDisplay:10.37,2013-03-11 22:44:00,
2013-03-11 17:49:00,57.0,20.5,29.30,WNW,292,6.0,6.8,24,0.00,CLR,,0.00,WeatherDisplay:10.37,2013-03-11 22:49:00,
2013-03-11 17:54:00,57.0,21.5,29.30,NNW,337,9.2,9.2,25,0.00,CLR,,0.00,WeatherDisplay:10.37,2013-03-11 22:54:00,
2013-03-11 17:59:00,57.0,20.5,29.30,West,270,5.0,5.0,24,0.00,CLR,,0.00,WeatherDisplay:10.37,2013-03-11 22:59:00,
2013-03-11 18:04:00,57.0,21.5,29.30,NW,315,9.2,9.2,25,0.00,CLR,,0.00,WeatherDisplay:10.37,2013-03-11 23:04:00,
2013-03-11 18:09:00,57.0,20.5,29.30,NNW,337,5.8,5.8,24,0.00,CLR,,0.00,WeatherDisplay:10.37,2013-03-11 23:09:00,
2013-03-11 18:14:00,58.0,21.4,29.30,NW,315,5.0,5.0,24,0.00,CLR,,0.00,WeatherDisplay:10.37,2013-03-11 23:14:00,
2013-03-11 18:20:00,57.0,20.5,29.30,NNW,337,7.0,7.0,24,0.00,CLR,,0.00,WeatherDisplay:10.37,2013-03-11 23:20:00,
2013-03-11 18:25:00,57.0,22.4,29.30,NNE,22,3.5,3.5,26,0.00,CLR,,0.00,WeatherDisplay:10.37,2013-03-11 23:25:00,
2013-03-11 18:30:00,57.0,21.5,29.30,North,360,8.1,8.1,25,0.00,CLR,,0.00,WeatherDisplay:10.37,2013-03-11 23:30:00,
2013-03-11 18:35:00,57.0,21.5,29.30,NW,315,9.2,9.2,25,0.00,CLR,,0.00,WeatherDisplay:10.37,2013-03-11 23:35:00,
2013-03-11 18:40:00,57.0,22.4,29.30,NW,315,6.9,6.9,26,0.00,CLR,,0.00,WeatherDisplay:10.37,2013-03-11 23:40:00,
2013-03-11 18:45:00,57.0,22.4,29.31,NNW,337,3.5,3.5,26,0.00,CLR,,0.00,WeatherDisplay:10.37,2013-03-11 23:45:00,
2013-03-11 18:50:00,57.0,22.4,29.31,North,360,3.5,3.5,26,0.00,CLR,,0.00,WeatherDisplay:10.37,2013-03-11 23:50:00,
2013-03-11 18:55:00,56.0,23.3,29.31,NW,315,5.8,5.8,28,0.00,CLR,,0.00,WeatherDisplay:10.37,2013-03-11 23:55:00,
2013-03-11 19:00:00,56.0,23.3,29.31,North,360,4.0,4.0,28,0.00,CLR,,0.00,WeatherDisplay:10.37,2013-03-12 00:00:00,
2013-03-11 19:05:00,56.0,24.2,29.30,West,270,1.2,1.2,29,0.00,CLR,,0.00,WeatherDisplay:10.37,2013-03-12 00:05:00,
2013-03-11 19:10:00,55.0,24.1,29.30,NNW,337,1.2,1.2,30,0.00,CLR,,0.00,WeatherDisplay:10.37,2013-03-12 00:10:00,
2013-03-11 19:15:00,54.0,24.0,29.30,North,360,3.5,3.5,31,0.00,CLR,,0.00,WeatherDisplay:10.37,2013-03-12 00:15:00,
2013-03-11 19:20:00,54.0,24.0,29.30,North,360,0.0,0.0,31,0.00,CLR,,0.00,WeatherDisplay:10.37,2013-03-12 00:20:00,
2013-03-11 19:25:00,53.0,23.9,29.29,North,360,0.0,0.0,32,0.00,CLR,,0.00,WeatherDisplay:10.37,2013-03-12 00:25:00,
2013-03-11 19:30:00,52.0,23.8,29.29,North,360,0.0,0.0,33,0.00,CLR,,0.00,WeatherDisplay:10.37,2013-03-12 00:30:00,
2013-03-11 19:35:00,51.0,22.9,29.29,North,360,0.0,0.0,33,0.00,CLR,,0.00,WeatherDisplay:10.37,2013-03-12 00:35:00,
2013-03-11 19:40:00,51.0,22.9,29.29,North,360,0.0,0.0,33,0.00,CLR,,0.00,WeatherDisplay:10.37,2013-03-12 00:40:00,
2013-03-11 19:45:00,50.0,22.7,29.29,North,360,0.0,0.0,34,0.00,CLR,,0.00,WeatherDisplay:10.37,2013-03-12 00:45:00,
2013-03-11 19:50:00,49.0,22.5,29.29,North,360,0.0,0.0,35,0.00,CLR,,0.00,WeatherDisplay:10.37,2013-03-12 00:50:00,
2013-03-11 19:55:00,48.0,22.9,29.29,North,360,0.0,0.0,37,0.00,CLR,,0.00,WeatherDisplay:10.37,2013-03-12 00:55:00,
2013-03-11 20:00:00,48.0,23.6,29.28,North,360,0.0,0.0,38,0.00,CLR,,0.00,WeatherDisplay:10.37,2013-03-12 01:00:00,
2013-03-11 20:05:00,48.0,24.2,29.29,North,360,0.0,0.0,39,0.00,CLR,,0.00,WeatherDisplay:10.37,2013-03-12 01:05:00,
2013-03-11 20:10:00,48.0,24.8,29.29,North,360,0.0,0.0,40,0.00,CLR,,0.00,WeatherDisplay:10.37,2013-03-12 01:10:00,
2013-03-11 20:15:00,48.0,26.0,29.29,North,360,0.0,0.0,42,0.00,CLR,,0.00,WeatherDisplay:10.37,2013-03-12 01:15:00,
2013-03-11 20:20:00,48.0,26.0,29.28,North,360,0.0,0.0,42,0.00,CLR,,0.00,WeatherDisplay:10.37,2013-03-12 01:20:00,
2013-03-11 20:25:00,47.0,25.1,29.28,North,360,0.0,0.0,42,0.00,CLR,,0.00,WeatherDisplay:10.37,2013-03-12 01:25:00,
2013-03-11 20:30:00,47.0,25.1,29.28,North,360,0.0,0.0,42,0.00,CLR,,0.00,WeatherDisplay:10.37,2013-03-12 01:30:00,
2013-03-11 20:35:00,47.0,25.1,29.28,North,360,0.0,0.0,42,0.00,CLR,,0.00,WeatherDisplay:10.37,2013-03-12 01:35:00,
2013-03-11 20:40:00,47.0,25.6,29.29,North,360,0.0,0.0,43,0.00,CLR,,0.00,WeatherDisplay:10.37,2013-03-12 01:40:00,
2013-03-11 20:45:00,46.0,25.3,29.29,North,360,0.0,0.0,44,0.00,CLR,,0.00,WeatherDisplay:10.37,2013-03-12 01:45:00,
2013-03-11 20:50:00,47.0,25.6,29.29,North,360,0.0,0.0,43,0.00,CLR,,0.00,WeatherDisplay:10.37,2013-03-12 01:50:00,
2013-03-11 20:55:00,47.0,25.6,29.29,North,360,1.2,1.2,43,0.00,CLR,,0.00,WeatherDisplay:10.37,2013-03-12 01:55:00,
2013-03-11 21:00:00,47.0,26.2,29.29,North,360,0.0,0.0,44,0.00,CLR,,0.00,WeatherDisplay:10.37,2013-03-12 02:00:00,
2013-03-11 21:05:00,46.0,25.3,29.29,North,360,0.0,0.0,44,0.00,CLR,,0.00,WeatherDisplay:10.37,2013-03-12 02:05:00,
2013-03-11 21:10:00,46.0,25.8,29.29,North,360,0.0,0.0,45,0.00,CLR,,0.00,WeatherDisplay:10.37,2013-03-12 02:10:00,
2013-03-11 21:15:00,45.0,25.4,29.29,North,360,0.0,0.0,46,0.00,CLR,,0.00,WeatherDisplay:10.37,2013-03-12 02:15:00,
2013-03-11 21:20:00,46.0,25.8,29.29,North,360,0.0,0.0,45,0.00,CLR,,0.00,WeatherDisplay:10.37,2013-03-12 02:20:00,
2013-03-11 21:25:00,46.0,26.4,29.29,North,360,0.0,0.0,46,0.00,CLR,,0.00,WeatherDisplay:10.37,2013-03-12 02:25:00,
2013-03-11 21:30:00,46.0,26.9,29.29,North,360,0.0,0.0,47,0.00,CLR,,0.00,WeatherDisplay:10.37,2013-03-12 02:30:00,
2013-03-11 21:35:00,45.0,27.0,29.29,East,90,0.0,0.0,49,0.00,CLR,,0.00,WeatherDisplay:10.37,2013-03-12 02:35:00,
2013-03-11 21:40:00,45.0,27.0,29.29,East,90,0.0,0.0,49,0.00,CLR,,0.00,WeatherDisplay:10.37,2013-03-12 02:40:00,
2013-03-11 21:45:00,45.0,26.5,29.29,East,90,1.2,0.0,48,0.00,CLR,,0.00,WeatherDisplay:10.37,2013-03-12 02:45:00,
2013-03-11 21:50:00,45.0,26.5,29.30,East,90,0.0,0.0,48,0.00,CLR,,0.00,WeatherDisplay:10.37,2013-03-12 02:50:00,
2013-03-11 21:55:00,45.0,26.5,29.30,East,90,1.2,1.2,48,0.00,CLR,,0.00,WeatherDisplay:10.37,2013-03-12 02:55:00,
2013-03-11 22:00:00,45.0,26.5,29.30,East,90,0.0,0.0,48,0.00,CLR,,0.00,WeatherDisplay:10.37,2013-03-12 03:00:00,
2013-03-11 22:05:00,44.0,25.5,29.30,East,90,0.0,0.0,48,0.00,CLR,,0.00,WeatherDisplay:10.37,2013-03-12 03:05:00,
2013-03-11 22:10:00,44.0,26.5,29.30,East,90,0.0,0.0,50,0.00,CLR,,0.00,WeatherDisplay:10.37,2013-03-12 03:10:00,
2013-03-11 22:15:00,44.0,26.5,29.30,East,90,0.0,0.0,50,0.00,CLR,,0.00,WeatherDisplay:10.37,2013-03-12 03:15:00,
2013-03-11 22:20:00,43.0,26.1,29.30,East,90,0.0,0.0,51,0.00,CLR,,0.00,WeatherDisplay:10.37,2013-03-12 03:20:00,
2013-03-11 22:25:00,43.0,26.1,29.30,East,90,0.0,0.0,51,0.00,CLR,,0.00,WeatherDisplay:10.37,2013-03-12 03:25:00,
2013-03-11 22:30:00,43.0,25.6,29.30,East,90,0.0,0.0,50,0.00,CLR,,0.00,WeatherDisplay:10.37,2013-03-12 03:30:00,
2013-03-11 22:35:00,44.0,26.5,29.30,East,90,0.0,0.0,50,0.00,CLR,,0.00,WeatherDisplay:10.37,2013-03-12 03:35:00,
2013-03-11 22:40:00,43.0,25.6,29.30,East,90,0.0,0.0,50,0.00,CLR,,0.00,WeatherDisplay:10.37,2013-03-12 03:40:00,
2013-03-11 22:45:00,43.0,25.6,29.31,SSE,157,1.2,1.2,50,0.00,CLR,,0.00,WeatherDisplay:10.37,2013-03-12 03:45:00,
2013-03-11 22:50:00,43.0,25.6,29.31,SSE,157,1.2,1.2,50,0.00,CLR,,0.00,WeatherDisplay:10.37,2013-03-12 03:50:00,
2013-03-11 22:55:00,44.0,26.0,29.31,SSE,157,1.2,0.0,49,0.00,CLR,,0.00,WeatherDisplay:10.37,2013-03-12 03:55:00,
2013-03-11 23:00:00,43.0,25.1,29.31,SSE,157,0.0,0.0,49,0.00,CLR,,0.00,WeatherDisplay:10.37,2013-03-12 04:00:00,
2013-03-11 23:05:00,43.0,24.1,29.31,ESE,112,3.5,3.5,47,0.00,CLR,,0.00,WeatherDisplay:10.37,2013-03-12 04:05:00,
2013-03-11 23:10:00,45.0,24.9,29.31,ESE,112,1.2,1.2,45,0.00,CLR,,0.00,WeatherDisplay:10.37,2013-03-12 04:10:00,
2013-03-11 23:15:00,45.0,25.4,29.31,ESE,112,0.0,0.0,46,0.00,CLR,,0.00,WeatherDisplay:10.37,2013-03-12 04:15:00,
2013-03-11 23:20:00,44.0,24.5,29.32,ESE,112,0.0,0.0,46,0.00,CLR,,0.00,WeatherDisplay:10.37,2013-03-12 04:20:00,
2013-03-11 23:25:00,44.0,25.5,29.32,ESE,112,0.0,0.0,48,0.00,CLR,,0.00,WeatherDisplay:10.37,2013-03-12 04:25:00,
2013-03-11 23:30:00,43.0,24.6,29.31,ESE,112,3.5,3.5,48,0.00,CLR,,0.00,WeatherDisplay:10.37,2013-03-12 04:30:00,
2013-03-11 23:35:00,44.0,25.5,29.31,ESE,112,2.3,2.3,48,0.00,CLR,,0.00,WeatherDisplay:10.37,2013-03-12 04:35:00,
2013-03-11 23:40:00,44.0,25.5,29.31,ESE,112,2.3,2.3,48,0.00,CLR,,0.00,WeatherDisplay:10.37,2013-03-12 04:40:00,
2013-03-11 23:45:00,44.0,25.5,29.31,ESE,112,3.5,3.5,48,0.00,CLR,,0.00,WeatherDisplay:10.37,2013-03-12 04:45:00,
2013-03-11 23:50:00,44.0,25.5,29.31,East,90,2.3,2.3,48,0.00,CLR,,0.00,WeatherDisplay:10.37,2013-03-12 04:50:00,
2013-03-11 23:55:00,43.0,25.6,29.31,East,90,1.0,1.0,50,0.00,CLR,,0.00,WeatherDisplay:10.37,2013-03-12 04:55:00,